Location: Washington
(38.8950°N, 77.0370°W)
Time: 01:46:35
(UTC-05:00)

Amateur Radio Satellites - All Passes

Search period start: 03 December 2016 01:16
Search period end: 04 December 2016 01:16
Location: Washington, 38.8950°N, 77.0370°W

Satellite Date Start Highest point End Downlink Frequencies (MHz)
Time Altitude Azimuth
Cosmos 2499 03 Dec 01:19:45 01:28:10 82° 277° (W) 01:37:05 435.465 / 435.565
DUCHIFAT 1 03 Dec 01:20:50 01:22:31 12° 296° (WNW) 01:24:10 145.980
Gurwin Techsat 1B 03 Dec 01:27:26 01:32:07 31° 96° (E) 01:36:46 435.225
AO-85 03 Dec 01:36:20 01:39:22 16° 110° (ESE) 01:42:17 145.980
PHONESAT 2.4 03 Dec 01:39:39 01:41:59 27° 155° (SSE) 01:44:20 2401.200-2431.200
SWISSCUBE 03 Dec 01:42:45 01:47:29 66° 74° (ENE) 01:52:14 437.505
BEESAT 03 Dec 01:47:12 01:51:56 65° 74° (ENE) 01:56:40 436.000
MOZHAYETS 4 03 Dec 01:50:31 01:53:14 16° 65° (ENE) 01:55:56
Oscar 19 03 Dec 02:00:26 02:05:34 64° 287° (WNW) 02:10:42 437.125/150
TISAT 1 03 Dec 02:00:44 02:03:19 16° 267° (W) 02:05:55 437.305
AUBIESAT-1 03 Dec 02:06:51 02:10:38 44° 257° (WSW) 02:14:44 437.475
ITUPSAT 1 03 Dec 02:12:21 02:17:09 71° 259° (W) 02:21:56 437.325
M-CUBED/EXP-1 PRIME 03 Dec 02:16:29 02:19:52 27° 260° (W) 02:23:29 437.505
ITAMSAT 1 03 Dec 02:21:37 02:25:35 22° 94° (E) 02:29:31 435.822/435.867
O/OREOS (USA 219) 03 Dec 02:37:06 02:41:36 80° 67° (ENE) 02:46:04 437.305
KKS-1 03 Dec 02:45:53 02:49:34 26° 68° (ENE) 02:53:15 437.445
AO-7 03 Dec 03:00:44 03:08:14 35° 98° (E) 03:15:41 29.400- 29.500
STARS 03 Dec 03:02:40 03:05:41 18° 66° (ENE) 03:08:43 437.465
Gurwin Techsat 1B 03 Dec 03:07:21 03:11:59 31° 292° (WNW) 03:16:36 435.225
GONETS M04 03 Dec 03:09:05 03:15:15 21° 295° (WNW) 03:21:27
PHONESAT 2.4 03 Dec 03:14:29 03:17:08 73° 350° (N) 03:19:48 2401.200-2431.200
AO-85 03 Dec 03:14:33 03:19:27 58° 303° (WNW) 03:24:00 145.980
Cosmos 2499 03 Dec 03:17:42 03:22:46 17° 299° (WNW) 03:27:59 435.465 / 435.565
CUBESAT XI-V 03 Dec 03:19:52 03:23:05 19° 66° (ENE) 03:26:18 437.345
SWISSCUBE 03 Dec 03:23:53 03:25:40 12° 269° (W) 03:27:28 437.505
MOZHAYETS 4 03 Dec 03:25:29 03:29:57 51° 260° (W) 03:34:26
BEESAT 03 Dec 03:28:16 03:30:07 12° 269° (W) 03:31:57 436.000
ITAMSAT 1 03 Dec 04:00:20 04:05:11 42° 290° (WNW) 04:10:01 435.822/435.867
KKS-1 03 Dec 04:22:12 04:26:00 28° 264° (W) 04:29:51 437.445
SO-50 03 Dec 04:25:04 04:27:31 14° 42° (NE) 04:29:55 436.795
STARS 03 Dec 04:37:34 04:41:42 40° 261° (W) 04:45:54 437.465
YUBILEINY 03 Dec 04:49:23 04:54:35 17° 62° (ENE) 04:59:45 435.215
PHONESAT 2.4 03 Dec 04:49:54 04:52:32 63° 7° (N) 04:55:11 2401.200-2431.200
BEESAT 3 03 Dec 04:52:43 04:55:19 17° 111° (ESE) 04:57:57 437.485
AO-7 03 Dec 04:53:10 05:01:08 51° 295° (WNW) 05:09:06 29.400- 29.500
CUBESAT XI-V 03 Dec 04:55:51 05:00:08 40° 262° (W) 05:04:28 437.345
GOMX 1 03 Dec 05:03:59 05:08:22 24° 94° (E) 05:12:44 467.674
BRITE-PL 03 Dec 05:09:18 05:14:37 61° 101° (E) 05:20:11 437.365/2234.400
CUTE-I 03 Dec 05:10:48 05:13:08 13° 90° (E) 05:15:29 437.470
BEESAT 2 03 Dec 05:14:59 05:16:58 14° 109° (ESE) 05:18:57 435.950
Cosmos 2491 03 Dec 05:20:24 05:21:49 10° 74° (ENE) 05:23:14 435.465 / 435.565
HORYU 2 03 Dec 05:28:17 05:32:43 70° 101° (E) 05:37:06 437.375
STRAND 1 03 Dec 05:32:15 05:35:52 20° 64° (ENE) 05:39:28 437.568
DOVE 4 03 Dec 05:32:49 05:36:32 19° 91° (E) 05:40:09 437.250
RS-15 03 Dec 05:34:00 05:36:31 11° 93° (E) 05:39:03 29.354- 29.394
Cubesat XI-IV 03 Dec 05:34:07 05:38:15 22° 94° (E) 05:42:21 437.490
NOAA 15 03 Dec 05:43:12 05:47:50 31° 97° (E) 05:52:26 137.62
SO-50 03 Dec 06:04:01 06:08:33 78° 240° (WSW) 06:12:59 436.795
Cosmos 2504 03 Dec 06:11:27 06:18:43 28° 68° (ENE) 06:25:40 435.465 / 435.565
AIST 1 03 Dec 06:12:28 06:14:41 13° 71° (ENE) 06:16:52
PHONESAT 2.4 03 Dec 06:25:14 06:27:46 39° 202° (SSW) 06:30:17 2401.200-2431.200
NOAA 18 03 Dec 06:28:28 06:33:49 46° 100° (E) 06:39:05 137.9125
BEESAT 3 03 Dec 06:29:03 06:32:39 35° 307° (NW) 06:36:19 437.485
LilacSat-2 03 Dec 06:32:13 06:35:59 71° 283° (WNW) 06:39:43 437.200
GOMX 1 03 Dec 06:41:24 06:46:31 43° 288° (WNW) 06:51:40 467.674
YUBILEINY 03 Dec 06:43:53 06:52:45 84° 83° (E) 07:01:37 435.215
CUTE 1.7 + AOD 2 03 Dec 06:47:21 06:49:06 12° 91° (E) 06:50:52 437.475
CUTE-I 03 Dec 06:48:22 06:53:42 72° 286° (WNW) 06:58:58 437.470
BRITE-PL 03 Dec 06:49:06 06:52:37 18° 295° (WNW) 06:56:15 437.365/2234.400
BEESAT 2 03 Dec 06:50:32 06:54:19 46° 305° (NW) 06:58:11 435.950
AO-7 03 Dec 06:50:34 06:51:55 10° 316° (NW) 06:53:17 29.400- 29.500
HO-68 03 Dec 07:00:39 07:06:41 28° 95° (E) 07:12:39 435.675
CANX-2 03 Dec 07:03:16 07:06:36 22° 95° (E) 07:09:56 2200.000
HORYU 2 03 Dec 07:07:22 07:08:39 11° 298° (WNW) 07:09:55 437.375
Cosmos 2491 03 Dec 07:08:11 07:16:52 68° 92° (E) 07:25:32 435.465 / 435.565
DOVE 4 03 Dec 07:09:18 07:14:27 51° 287° (WNW) 07:19:28 437.250
STRAND 1 03 Dec 07:09:40 07:14:39 49° 260° (W) 07:19:38 437.568
Cubesat XI-IV 03 Dec 07:13:26 07:18:29 43° 290° (WNW) 07:23:28 437.490
CINEMA 3 03 Dec 07:15:33 07:20:17 49° 99° (E) 07:24:45 145.822/145.860
NOAA 15 03 Dec 07:22:56 07:27:32 31° 292° (WNW) 07:32:08 137.62
AAUSAT CUBESAT 2 03 Dec 07:27:38 07:29:10 12° 91° (E) 07:30:43 437.432
RS-15 03 Dec 07:34:50 07:46:12 63° 113° (ESE) 07:58:09 29.354- 29.394
SEEDS 03 Dec 07:35:34 07:39:16 30° 96° (E) 07:42:57 437.485
PRISM 03 Dec 07:43:18 07:46:31 23° 68° (ENE) 07:49:46 437.425
AIST 1 03 Dec 07:48:18 07:52:33 49° 267° (W) 07:56:47
COMPASS 1 03 Dec 07:52:31 07:56:13 31° 97° (E) 07:59:55 437.405
CUBEBUG 2 03 Dec 07:56:41 08:00:39 31° 96° (E) 08:04:27 437.445
ZACube-1 03 Dec 08:00:40 08:02:21 12° 90° (E) 08:04:02 437.345
Cosmos 2504 03 Dec 08:04:02 08:12:43 64° 269° (W) 08:20:57 435.465 / 435.565
FUNcube-1 03 Dec 08:09:48 08:12:07 14° 92° (E) 08:14:25 145.935
NOAA 18 03 Dec 08:09:50 08:14:08 24° 296° (WNW) 08:18:24 137.9125
CUTE 1.7 + AOD 2 03 Dec 08:21:08 08:25:12 50° 286° (WNW) 08:29:16 437.475
CANX-2 03 Dec 08:38:51 08:42:25 27° 290° (WNW) 08:45:59 2200.000
YUBILEINY 03 Dec 08:42:54 08:48:21 18° 282° (WNW) 08:53:50 435.215
Oscar 11 03 Dec 08:43:30 08:47:27 35° 98° (E) 08:51:22 145.826/435.025
UWE-3 03 Dec 08:46:00 08:50:21 73° 101° (ESE) 08:54:33 435.000/436.395/437.385
HO-68 03 Dec 08:47:42 08:54:38 53° 292° (WNW) 09:01:34 435.675
AIST 2 03 Dec 08:47:56 08:52:00 74° 119° (ESE) 08:56:10 435.215
UNISAT 6 03 Dec 08:49:37 08:53:41 30° 70° (ENE) 08:57:43 437.425
CINEMA 3 03 Dec 08:53:47 08:56:56 18° 295° (WNW) 09:00:01 145.822/145.860
DELFI C3 03 Dec 08:54:45 08:57:07 15° 93° (E) 08:59:28 145.870
AAUSAT CUBESAT 2 03 Dec 09:00:54 09:04:54 50° 286° (WNW) 09:08:54 437.432
JAS-2 03 Dec 09:06:24 09:09:16 13° 61° (ENE) 09:12:00 435.910
Cosmos 2491 03 Dec 09:07:29 09:14:23 25° 292° (WNW) 09:21:19 435.465 / 435.565
SEEDS 03 Dec 09:11:40 09:14:46 21° 292° (WNW) 09:17:52 437.485
CUSAT 1 03 Dec 09:14:05 09:17:02 24° 97° (E) 09:19:32 437.405
PRISM 03 Dec 09:18:20 09:21:42 25° 264° (W) 09:25:06 437.425
TIGRISAT 03 Dec 09:20:02 09:24:38 58° 74° (ENE) 09:29:14 435.000
ANTELSAT 03 Dec 09:20:35 09:25:13 62° 75° (ENE) 09:29:51 437.575/2403.000
DANDE 03 Dec 09:27:55 09:30:12 13° 94° (E) 09:32:16 436.750
COMPASS 1 03 Dec 09:28:32 09:31:33 20° 292° (WNW) 09:34:33 437.405
CUBEBUG 2 03 Dec 09:33:39 09:37:03 22° 293° (WNW) 09:40:21 437.445
ZACube-1 03 Dec 09:34:49 09:38:57 50° 287° (WNW) 09:42:59 437.345
FUNcube-1 03 Dec 09:44:34 09:48:35 42° 287° (WNW) 09:52:30 145.935
RS-15 03 Dec 09:48:10 09:59:17 44° 317° (NW) 10:10:53 29.354- 29.394
HUMSAT D 03 Dec 09:55:56 09:59:49 41° 99° (E) 10:03:39 437.325/437.525
NANOSAT C BR1 03 Dec 10:10:26 10:13:39 21° 68° (ENE) 10:16:53 145.865
QB50P2 03 Dec 10:12:41 10:16:13 26° 69° (ENE) 10:19:47 145.880/145.840
POLYITAN 1 03 Dec 10:13:21 10:16:52 25° 69° (ENE) 10:20:22 437.675
Oscar 11 03 Dec 10:20:16 10:23:19 19° 293° (WNW) 10:26:21 145.826/435.025
UNISAT 6 03 Dec 10:26:23 10:30:20 26° 265° (W) 10:34:16 437.425
QB50P1 03 Dec 10:27:03 10:30:55 34° 71° (ENE) 10:34:49 145.935-145.965
DELFI C3 03 Dec 10:28:24 10:32:02 36° 288° (WNW) 10:35:41 145.870
AIST 2 03 Dec 10:29:05 10:31:00 13° 317° (NW) 10:32:54 435.215
DUCHIFAT 1 03 Dec 10:33:36 10:37:28 35° 71° (ENE) 10:41:21 145.980
JAS-2 03 Dec 10:46:53 10:53:41 88° 77° (ENE) 10:59:40 435.910
POPSAT HIP 1 03 Dec 10:47:51 10:52:03 59° 74° (ENE) 10:56:18 437.405
CUSAT 1 03 Dec 10:57:57 10:58:48 11° 284° (WNW) 10:59:37 437.405
TIGRISAT 03 Dec 10:59:22 11:01:38 13° 269° (W) 11:03:54 435.000
ANTELSAT 03 Dec 11:00:20 11:02:16 12° 269° (W) 11:04:12 437.575/2403.000
DANDE 03 Dec 11:07:45 11:12:50 47° 280° (W) 11:16:40 436.750
CUBEBUG 1 03 Dec 11:11:52 11:15:29 24° 95° (E) 11:19:07 437.445
Cosmos 2499 03 Dec 11:13:32 11:21:20 36° 72° (ENE) 11:28:38 435.465 / 435.565
VELOX 1 03 Dec 11:14:50 11:17:48 17° 93° (E) 11:20:46 145.980
50 SAT 03 Dec 11:18:15 11:19:49 12° 93° (E) 11:21:23 437.505
GONETS M04 03 Dec 11:20:55 11:28:49 37° 73° (ENE) 11:36:41
PCSat 03 Dec 11:31:39 11:36:37 39° 111° (ESE) 11:41:39 145.827
HUMSAT D 03 Dec 11:32:47 11:35:03 15° 294° (WNW) 11:37:19 437.325/437.525
Oscar 19 03 Dec 11:38:37 11:42:12 19° 64° (ENE) 11:45:47 437.125/150
DX 1 03 Dec 11:38:59 11:41:48 17° 93° (E) 11:44:35 434.975-435.025
BUGSAT 1 03 Dec 11:43:16 11:47:27 84° 79° (E) 11:51:44 437.445
NANOSAT C BR1 03 Dec 11:45:24 11:49:10 31° 263° (W) 11:52:58 145.865
AO-85 03 Dec 11:47:29 11:51:28 83° 59° (ENE) 11:55:19 145.980
QB50P2 03 Dec 11:48:23 11:51:55 25° 264° (W) 11:55:30 145.880/145.840
POLYITAN 1 03 Dec 11:48:55 11:52:32 26° 264° (W) 11:56:11 437.675
UKube-1 03 Dec 11:52:25 11:55:16 17° 94° (E) 11:58:06 .
ESTCUBE 1 03 Dec 11:52:48 11:57:17 70° 285° (WNW) 12:01:46 437.505/2401.250
QB50P1 03 Dec 12:03:45 12:06:45 19° 266° (W) 12:09:47 145.935-145.965
RS-15 03 Dec 12:08:02 12:16:26 20° 349° (N) 12:24:57 29.354- 29.394
DUCHIFAT 1 03 Dec 12:10:16 12:13:13 18° 266° (W) 12:16:12 145.980
SPROUT 03 Dec 12:10:46 12:14:56 47° 99° (E) 12:19:03 437.525
AISAT 03 Dec 12:12:48 12:17:18 83° 101° (E) 12:21:46 437.250
POPSAT HIP 1 03 Dec 12:27:06 12:28:11 11° 269° (W) 12:29:15 437.405
JAS-2 03 Dec 12:36:21 12:39:10 13° 269° (W) 12:41:53 435.910
Gurwin Techsat 1B 03 Dec 12:47:08 12:52:08 44° 71° (ENE) 12:57:11 435.225
CUBEBUG 1 03 Dec 12:47:55 12:51:43 28° 291° (WNW) 12:55:31 437.445
50 SAT 03 Dec 12:50:00 12:53:14 34° 287° (WNW) 12:56:28 437.505
VELOX 1 03 Dec 12:50:13 12:54:24 40° 288° (WNW) 12:58:33 145.980
Cosmos 2499 03 Dec 13:06:29 13:14:36 47° 272° (W) 13:22:12 435.465 / 435.565
JUGNU 03 Dec 13:09:43 13:10:37 10° 174° (S) 13:11:32 437.505
DX 1 03 Dec 13:14:00 13:18:08 41° 289° (WNW) 13:22:15 434.975-435.025
PCSat 03 Dec 13:15:26 13:20:05 29° 308° (NW) 13:24:47 145.827
Oscar 19 03 Dec 13:16:10 13:21:06 49° 260° (W) 13:26:06 437.125/150
GONETS M04 03 Dec 13:17:35 13:25:43 46° 272° (W) 13:33:52
UKube-1 03 Dec 13:27:24 13:31:26 39° 289° (WNW) 13:35:27 .
ITAMSAT 1 03 Dec 13:38:10 13:42:42 31° 68° (ENE) 13:47:14 435.822/435.867
TISAT 1 03 Dec 13:43:44 13:47:59 87° 102° (ESE) 13:52:12 437.305
SWISSCUBE 03 Dec 13:45:11 13:48:25 18° 93° (E) 13:51:38 437.505
AUBIESAT-1 03 Dec 13:47:30 13:50:10 15° 96° (E) 13:52:46 437.475
SPROUT 03 Dec 13:48:04 13:50:25 15° 295° (WNW) 13:52:46 437.525
BEESAT 03 Dec 13:49:36 13:52:48 18° 93° (E) 13:56:00 436.000
M-CUBED/EXP-1 PRIME 03 Dec 13:56:10 13:59:57 24° 99° (E) 14:03:37 437.505
AO-7 03 Dec 13:58:18 14:05:59 44° 63° (ENE) 14:13:43 29.400- 29.500
ITUPSAT 1 03 Dec 14:14:20 14:18:35 32° 97° (E) 14:22:48 437.325
RS-15 03 Dec 14:25:26 14:35:14 26° 26° (NNE) 14:44:53 29.354- 29.394
Gurwin Techsat 1B 03 Dec 14:28:13 14:32:15 22° 266° (W) 14:36:19 435.225
BEESAT 3 03 Dec 14:46:39 14:50:39 83° 61° (ENE) 14:54:37 437.485
JUGNU 03 Dec 14:57:16 14:58:42 11° 184° (S) 15:00:07 437.505
BEESAT 2 03 Dec 15:09:11 15:13:13 65° 58° (ENE) 15:17:12 435.950
O/OREOS (USA 219) 03 Dec 15:12:48 15:13:38 10° 97° (E) 15:14:28 437.305
ITAMSAT 1 03 Dec 15:17:30 15:22:05 31° 263° (W) 15:26:41 435.822/435.867
AUBIESAT-1 03 Dec 15:20:20 15:24:50 52° 292° (WNW) 15:29:10 437.475
MOZHAYETS 4 03 Dec 15:21:38 15:25:55 39° 98° (E) 15:30:10
SWISSCUBE 03 Dec 15:21:53 15:26:22 43° 289° (WNW) 15:30:51 437.505
BEESAT 03 Dec 15:26:15 15:30:47 44° 288° (WNW) 15:35:15 436.000
M-CUBED/EXP-1 PRIME 03 Dec 15:30:10 15:34:25 35° 295° (WNW) 15:38:33 437.505
AO-7 03 Dec 15:51:05 15:58:43 41° 260° (W) 16:06:27 29.400- 29.500
ITUPSAT 1 03 Dec 15:52:23 15:56:16 25° 293° (WNW) 16:00:07 437.325
ISS 03 Dec 16:08:19 16:10:28 16° 130° (SE) 16:12:38 145.825
GOMX 1 03 Dec 16:11:47 16:14:56 19° 65° (ENE) 16:18:13 467.674
KKS-1 03 Dec 16:13:27 16:17:54 60° 101° (E) 16:22:19 437.445
NOAA 18 03 Dec 16:18:08 16:19:13 11° 57° (ENE) 16:20:18 137.9125
BRITE-PL 03 Dec 16:19:39 16:23:45 53° 74° (ENE) 16:28:06 437.365/2234.400
HORYU 2 03 Dec 16:24:41 16:29:04 54° 73° (ENE) 16:33:27 437.375
STARS 03 Dec 16:27:55 16:32:04 38° 99° (E) 16:36:10 437.465
SRMSAT 03 Dec 16:30:09 16:31:51 11° 179° (S) 16:33:32 437.500
CUTE-I 03 Dec 16:30:44 16:34:38 21° 64° (ENE) 16:38:32 437.470
DOVE 4 03 Dec 16:37:41 16:40:29 16° 63° (ENE) 16:43:21 437.250
RS-15 03 Dec 16:38:19 16:50:42 68° 54° (NE) 17:02:38 29.354- 29.394
O/OREOS (USA 219) 03 Dec 16:47:51 16:52:23 67° 292° (WNW) 16:56:56 437.305
CUBESAT XI-V 03 Dec 16:53:05 16:57:39 53° 100° (E) 17:02:12 437.345
Cubesat XI-IV 03 Dec 16:54:39 16:59:25 34° 68° (ENE) 17:04:12 437.490
MOZHAYETS 4 03 Dec 16:59:34 17:02:46 19° 294° (WNW) 17:05:58
NOAA 15 03 Dec 17:01:57 17:06:52 43° 70° (ENE) 17:11:50 137.62
AIST 2 03 Dec 17:10:28 17:14:20 33° 53° (NE) 17:18:10 435.215
LilacSat-2 03 Dec 17:12:34 17:16:14 43° 74° (ENE) 17:19:55 437.200
Cosmos 2491 03 Dec 17:20:39 17:28:09 31° 70° (ENE) 17:35:37 435.465 / 435.565
HO-68 03 Dec 17:29:32 17:34:19 20° 57° (ENE) 17:39:07 435.675
ISS 03 Dec 17:43:31 17:46:42 48° 325° (NW) 17:49:56 145.825
GOMX 1 03 Dec 17:48:28 17:52:38 40° 263° (W) 17:57:08 467.674
YUBILEINY 03 Dec 17:50:18 17:55:49 19° 79° (ENE) 18:01:20 435.215
KKS-1 03 Dec 17:51:53 17:53:56 13° 297° (WNW) 17:55:59 437.445
NOAA 18 03 Dec 17:53:24 17:58:55 78° 74° (ENE) 18:04:29 137.9125
CANX-2 03 Dec 17:55:50 17:58:11 15° 66° (ENE) 18:00:32 2200.000
BRITE-PL 03 Dec 18:01:15 18:02:42 11° 271° (W) 18:04:10 437.365/2234.400
HORYU 2 03 Dec 18:03:51 18:05:54 13° 268° (W) 18:07:59 437.375
STARS 03 Dec 18:05:02 18:08:06 19° 294° (WNW) 18:11:10 437.465
CUTE-I 03 Dec 18:09:05 18:14:17 50° 260° (W) 18:19:30 437.470
DOVE 4 03 Dec 18:13:00 18:17:34 57° 261° (W) 18:22:29 437.250
CINEMA 3 03 Dec 18:15:13 18:19:44 39° 71° (ENE) 18:24:22 145.822/145.860
SEEDS 03 Dec 18:26:41 18:29:35 19° 67° (ENE) 18:32:29 437.485
CUBESAT XI-V 03 Dec 18:31:53 18:34:33 15° 295° (WNW) 18:37:14 437.345
Cubesat XI-IV 03 Dec 18:34:48 18:39:27 30° 264° (W) 18:44:07 437.490
COMPASS 1 03 Dec 18:42:39 18:45:31 19° 68° (ENE) 18:48:23 437.405
NOAA 15 03 Dec 18:42:53 18:46:49 21° 266° (W) 18:50:47 137.62
Cosmos 2504 03 Dec 18:49:11 18:55:05 22° 79° (E) 19:01:12 435.465 / 435.565
LilacSat-2 03 Dec 18:49:18 18:50:44 12° 269° (W) 18:52:10 437.200
AIST 2 03 Dec 18:49:19 18:52:37 22° 248° (WSW) 18:55:54 435.215
RS-15 03 Dec 18:51:49 19:02:19 35° 256° (WSW) 19:12:32 29.354- 29.394
CUBEBUG 2 03 Dec 18:53:12 18:57:04 25° 69° (ENE) 19:00:56 437.445
ZACube-1 03 Dec 18:56:54 18:57:20 10° 62° (ENE) 18:57:45 437.345
FUNcube-1 03 Dec 19:05:02 19:06:39 12° 63° (ENE) 19:08:15 145.935
CUTE 1.7 + AOD 2 03 Dec 19:11:57 19:16:10 87° 257° (WSW) 19:20:24 437.475
HO-68 03 Dec 19:14:02 19:21:11 81° 255° (WSW) 19:28:25 435.675
Cosmos 2491 03 Dec 19:16:57 19:25:20 55° 270° (W) 19:33:43 435.465 / 435.565
STRAND 1 03 Dec 19:21:12 19:26:16 62° 102° (ESE) 19:31:17 437.568
ISS 03 Dec 19:22:16 19:23:51 13° 344° (NNW) 19:25:25 145.825
CANX-2 03 Dec 19:29:35 19:33:38 45° 261° (W) 19:37:42 2200.000
Oscar 11 03 Dec 19:37:18 19:40:45 24° 69° (ENE) 19:44:12 145.826/435.025
NOAA 18 03 Dec 19:37:49 19:40:08 13° 270° (W) 19:42:29 137.9125
UWE-3 03 Dec 19:40:56 19:45:27 51° 74° (ENE) 19:49:57 435.000/436.395/437.385
YUBILEINY 03 Dec 19:42:45 19:51:27 82° 277° (W) 20:00:15 435.215
CUSAT 1 03 Dec 19:45:49 19:47:56 15° 77° (ENE) 19:50:19 437.405
AAUSAT CUBESAT 2 03 Dec 19:49:14 19:53:21 86° 73° (ENE) 19:57:28 437.432
CINEMA 3 03 Dec 19:53:13 19:56:57 22° 267° (W) 20:00:47 145.822/145.860
SEEDS 03 Dec 20:01:14 20:05:01 33° 263° (W) 20:08:49 437.485
AIST 1 03 Dec 20:15:45 20:20:03 79° 279° (W) 20:24:23
SO-50 03 Dec 20:16:37 20:21:10 45° 116° (ESE) 20:25:41 436.795
COMPASS 1 03 Dec 20:17:05 20:20:49 33° 263° (W) 20:24:34 437.405
PCSat 03 Dec 20:20:43 20:25:16 26° 51° (NE) 20:29:48 145.827
ZACube-1 03 Dec 20:28:21 20:32:56 80° 258° (WSW) 20:37:29 437.345
CUBEBUG 2 03 Dec 20:29:15 20:33:30 32° 264° (W) 20:37:45 437.445
FUNcube-1 03 Dec 20:37:45 20:42:18 68° 259° (W) 20:46:48 145.935
Cosmos 2504 03 Dec 20:39:14 20:47:26 73° 279° (W) 20:56:13 435.465 / 435.565
HUMSAT D 03 Dec 20:46:00 20:49:30 25° 70° (ENE) 20:52:58 437.325/437.525
PRISM 03 Dec 21:00:01 21:04:00 44° 99° (E) 21:07:59 437.425
STRAND 1 03 Dec 21:01:55 21:04:53 16° 298° (WNW) 21:07:51 437.568
HO-68 03 Dec 21:07:17 21:09:53 12° 272° (W) 21:12:30 435.675
DELFI C3 03 Dec 21:12:06 21:16:01 79° 258° (WSW) 21:19:57 145.870
Oscar 11 03 Dec 21:13:02 21:16:45 28° 264° (W) 21:20:28 145.826/435.025
TIGRISAT 03 Dec 21:15:00 21:16:51 12° 90° (E) 21:18:40 435.000
ANTELSAT 03 Dec 21:15:26 21:17:37 13° 91° (E) 21:19:46 437.575/2403.000
UWE-3 03 Dec 21:19:27 21:22:08 15° 268° (W) 21:24:49 435.000/436.395/437.385
CUSAT 1 03 Dec 21:26:29 21:29:41 30° 263° (W) 21:33:41 437.405
YUBILEINY 03 Dec 21:44:53 21:49:42 16° 298° (WNW) 21:54:33 435.215
DANDE 03 Dec 21:45:51 21:48:36 82° 261° (W) 21:51:52 436.750
SO-50 03 Dec 21:58:04 22:01:50 23° 313° (NW) 22:05:34 436.795
PCSat 03 Dec 22:03:42 22:08:50 44° 248° (WSW) 22:13:56 145.827
CUBEBUG 1 03 Dec 22:07:12 22:10:08 18° 66° (ENE) 22:13:06 437.445
VELOX 1 03 Dec 22:11:46 22:14:03 14° 64° (ENE) 22:16:21 145.980
UNISAT 6 03 Dec 22:18:35 22:23:00 74° 101° (E) 22:27:20 437.425
HUMSAT D 03 Dec 22:21:32 22:25:01 24° 264° (W) 22:28:29 437.325/437.525
DX 1 03 Dec 22:34:18 22:36:21 13° 63° (ENE) 22:38:22 434.975-435.025
ISS 03 Dec 22:36:31 22:39:05 20° 25° (NNE) 22:41:40 145.825
PRISM 03 Dec 22:36:34 22:38:55 15° 295° (WNW) 22:41:15 437.425
POPSAT HIP 1 03 Dec 22:36:55 22:37:27 10° 90° (E) 22:38:00 437.405
Cosmos 2504 03 Dec 22:38:30 22:42:33 14° 301° (WNW) 22:46:42 435.465 / 435.565
UKube-1 03 Dec 22:46:43 22:48:45 13° 64° (ENE) 22:50:48 .
TIGRISAT 03 Dec 22:49:34 22:53:52 53° 287° (WNW) 22:58:04 435.000
ANTELSAT 03 Dec 22:50:21 22:54:37 49° 287° (WNW) 22:58:46 437.575/2403.000
ESTCUBE 1 03 Dec 22:50:41 22:55:10 90° 263° (W) 22:59:40 437.505/2401.250
SPROUT 03 Dec 23:02:58 23:06:44 31° 71° (ENE) 23:10:33 437.525
AISAT 03 Dec 23:08:33 23:12:53 61° 74° (ENE) 23:17:17 437.250
50 SAT 03 Dec 23:23:27 23:26:56 72° 77° (ENE) 23:30:27 437.505
BUGSAT 1 03 Dec 23:28:03 23:30:04 13° 92° (E) 23:32:05 437.445
NANOSAT C BR1 03 Dec 23:30:27 23:34:30 43° 99° (E) 23:38:30 145.865
QB50P2 03 Dec 23:33:35 23:37:47 55° 100° (E) 23:41:54 145.880/145.840
POLYITAN 1 03 Dec 23:34:13 23:38:23 52° 100° (E) 23:42:29 437.675
CUBEBUG 1 03 Dec 23:42:03 23:46:06 39° 262° (W) 23:50:13 437.445
JAS-2 03 Dec 23:42:17 23:47:30 84° 103° (ESE) 23:52:54 435.910
VELOX 1 03 Dec 23:45:44 23:50:01 53° 259° (W) 23:54:22 145.980
QB50P1 03 Dec 23:48:05 23:52:21 77° 102° (ESE) 23:56:33 145.935-145.965
Cosmos 2499 03 Dec 23:48:13 23:55:12 30° 83° (E) 00:02:26 435.465 / 435.565
DUCHIFAT 1 03 Dec 23:53:54 23:58:09 77° 103° (ESE) 00:02:20 145.980
UNISAT 6 03 Dec 23:58:32 23:59:02 10° 298° (WNW) 23:59:32 437.425
DX 1 04 Dec 00:07:46 00:12:01 56° 259° (W) 00:16:20 434.975-435.025
POPSAT HIP 1 04 Dec 00:09:24 00:13:37 60° 285° (WNW) 00:17:45 437.405
ISS 04 Dec 00:12:34 00:15:49 57° 222° (SW) 00:19:04 145.825
PHONESAT 2.4 04 Dec 00:18:28 00:19:08 11° 147° (SSE) 00:19:47 2401.200-2431.200
UKube-1 04 Dec 00:20:05 00:24:18 54° 259° (W) 00:28:33 .
GONETS M04 04 Dec 00:20:20 00:28:24 44° 88° (E) 00:36:27
AUBIESAT-1 04 Dec 00:32:09 00:34:30 15° 58° (ENE) 00:36:57 437.475
TISAT 1 04 Dec 00:33:41 00:37:48 52° 74° (ENE) 00:41:56 437.305
SPROUT 04 Dec 00:39:25 00:42:40 21° 266° (W) 00:45:57 437.525
M-CUBED/EXP-1 PRIME 04 Dec 00:41:11 00:44:20 22° 62° (ENE) 00:47:41 437.505
AISAT 04 Dec 00:48:28 00:49:44 11° 269° (W) 00:50:59 437.250
SWISSCUBE 04 Dec 00:50:38 00:53:59 19° 65° (ENE) 00:57:21 437.505
BEESAT 04 Dec 00:54:59 00:58:18 19° 65° (ENE) 01:01:39 436.000
BUGSAT 1 04 Dec 01:01:39 01:05:41 46° 287° (WNW) 01:09:39 437.445
Gurwin Techsat 1B 04 Dec 01:05:26 01:09:09 19° 93° (E) 01:12:50 435.225
NANOSAT C BR1 04 Dec 01:07:21 01:09:49 15° 295° (WNW) 01:12:18 145.865
QB50P2 04 Dec 01:11:16 01:13:04 12° 296° (WNW) 01:14:51 145.880/145.840
POLYITAN 1 04 Dec 01:11:44 01:13:42 13° 296° (WNW) 01:15:39 437.675
